Location: Kershaw
(34.5481°N, 80.5823°W)
Time: 00:30:39
(UTC+00:00)

X-37B - Visible Passes

Search period start: 13 August 2022 00:00
Search period end: 23 August 2022 00:00
Orbit: 328 x 343 km, 45.0° (Epoch: 12 August)

Date Brightness Start Highest point End Pass type
(mag) Time Alt. Az. Time Alt. Az. Time Alt. Az.
13 Aug 3.7 08:19:18 11° N 08:19:18 11° N 08:20:07 10° NNE visible
13 Aug 2.6 09:52:58 10° NW 09:55:25 24° NNE 09:57:52 10° E visible
14 Aug 3.3 08:39:10 13° N 08:40:06 14° NNE 08:41:48 10° NE visible
14 Aug 0.9 10:13:08 10° NW 10:16:00 61° NNE 10:18:52 10° ESE visible
15 Aug 2.6 08:59:19 16° NNW 09:00:51 24° NNE 09:03:17 10° E visible
16 Aug 0.8 09:19:47 22° NW 09:21:26 60° NNE 09:24:17 10° ESE visible
17 Aug 0.8 09:40:41 25° W 09:41:50 38° SW 09:44:33 10° SSE visible
18 Aug 2.4 10:02:00 12° SW 10:02:02 12° SW 10:03:18 10° SSW visible
19 Aug 2.5 00:47:14 10° SSE 00:47:59 11° SE 00:47:59 11° SE visible
20 Aug 0.9 01:05:42 10° SSW 01:08:18 35° SE 01:09:04 29° ESE visible
21 Aug 0.6 01:25:53 10° WSW 01:28:41 63° NNW 01:29:44 33° NE visible
22 Aug 2.4 01:46:51 10° W 01:49:15 24° NNW 01:49:59 22° N visible
